CZ-6A DEB

Satellite information

Favourite Embed

Satellite Type and Status

DEBRISIN ORBIT

Key statistics

Satellite CZ-6A DEB at a glance.

Uptime

1129

Days in orbit

Revolutions

≈ 14.1

Per day

Orbit

SSO

Sun Synchronous Orbit

Inclination

98.8

Latest

Satellite identification and parameters

Extended collection of information and parameters for CZ-6A DEB.

Object identification

Identified? True

Debris? True

Object name: CZ-6A DEB

International designator: 2022-151KS

Object number (NORAD): 54542

Object ID (CCSDS): 54542

Country: PEOPLES REPUBLIC OF CHINA (PRC)

Current information (Y/N): Y

RCS size: SMALL

Orbital parameters

Period: 101.925 minutes

Inclination: 98.8277 deg

SMA: 7227.928 km

Apoapsis: 876.191 km

Periapsis: 823.394 km

RAAN: 349.6358 deg

Eccentricy: 0.00365231

Argument of periapsis: 124.1196 deg

Mean anomaly: 236.345 deg

Mean motion: 14.12804461 rev/day

Mean motion (dot): 0.00000794 rev/day2

B* drag term: 0.00044792711 1/REarth

Two-line elements (TLE)

Creation date: Dec. 13, 2025, 5:47 p.m.

Reference frame: TEME

Reference center: EARTH

Epoch: Dec. 13, 2025, 6:58 a.m. UTC

TLE line 0: 0 CZ-6A DEB

TLE line 1: 1 54542U 22151KS 25347.29070568 .00000794 00000-0 44793-3 0 9999

TLE line 2: 2 54542 98.8277 349.6358 0036523 124.1196 236.3450 14.12804461158798

Live tracking on map

Real-time ground track for satellite CZ-6A DEB.

In-orbit conjunctions

A list of the most updated potential collisions computed for object CZ-6A DEB.

Target Orbit TCA Probability of collision Miss distance Type
CZ-6A DEB LEO 2025-01-27 14:32:32 0.0001103536 57.0 (m) DEBRIS
COSMOS 1275 DEB LEO 2024-12-25 05:21:53 0.0001158104 155.0 (m) DEBRIS
CZ-6A R/B SSO 2024-08-16 07:45:03 0.000116067 311.0 (m) ROCKET BODY

Associated space launch

Chinese satellite reported for atmospheric/ocean/environmental/spatial parameter research purposes, details TBD.

CZ-6A DEB was lifted into orbit during the mission ‘Long March 6A | Yunhai 3’, on board a Long March 6A space rocket.

The launch took place on Nov. 11, 2022, 10:52 p.m. from Launch Complex 9A.

For more information about the launch, click the button.

Launch to space Long March 6A | Yunhai 3
Long March 6A | Yunhai 3

Agency: N/A

Status: Launch Successful

Launch date: Nov. 11, 2022, 10:52 p.m. UTC

Rocket: Long March 6A

Launch pad: Launch Complex 9A

Location: Taiyuan Satellite Launch Center, People's Republic of China

...

Latest news about this satellite

There are no fresh news available about this satellite. Check back as we update our databases every day.


Newsletter sign-up

Weekly statistics, charts and insights to help you stay on top of the space industry.